星链-3890 (STARLINK-3890 )

导读

STARLINK-3890是美国太空探索技术公司(SpaceX)星链计划的卫星,于2022年5月6日发射升空。作为星链星座组网的一部分,它主要为全球提供高速互联网接入服务,尤其覆盖偏远地区等网络基础设施匮乏区域。该卫星运行在近地轨道,依托星链大规模星座部署,助力实现全球无缝网络覆盖目标。

Basic Information
目录编号:
52455
目录名称:
STARLINK-3890
国际标识:
2022-049E
轨道中心:
EARTH
卫星名称:
星链-3890
卫星全名:
星链-3890 (STARLINK-3890 )
卫星状态:
在轨 (已飞行1503 天)
发射日期:
2022-05-06 UTC
国别 :
美国 (US)
星等 :
--
Orbit Information
数据来源 国际轨道数据 AOE轨道数据
星历时间 2026-06-17T12:39:59+0800
12小时前
查看轨道信息
2026-06-15T11:00:00+0800
2天前
查看轨道信息
半长轴 6917.893km 6917.926km
偏心率 0.0001137 0.0001218
轨道倾角 53.161° 53.159°
近地点辐角 83.414° 91.647°
升交点赤经 342.329° 351.633°
平近点角 276.698° 181.555°
近地点 538.969km 538.946km
远地点 540.543km 540.632km
周期 95.438分钟 95.438分钟
每日圈数 15.08836 15.088253
Detailed Information
固有亮度:
5
最大亮度:
2.5
卫星平台:
Starlink v1.5
覆盖范围:
全球
运营商:
太空探索技术公司
运营商所在国:
美国
制造商(研发单位):
太空探索技术公司
制造商所在国:
美国
使用方式:
暂无
Satellite Introduction
星链(Starlink)计划是由太空探索技术公司(SpaceX)提出的一个巨型低轨卫星互联网星座项目,计划在2019年至2024年间在太空搭建由约1.2万颗卫星组成的“星链”网络,其中1584颗将部署在地球上空550千米处的近地轨道,并从2020年开始工作。该卫星仍在工作。
2D Orbit Map
3D Orbit Map
Orbit Altitude Analysis Chart
Orbit Inclination Analysis Chart
Orbit Comprehensive Analysis Chart
View Comprehensive Chart